Time,TemperatureF,DewpointF,PressureIn,WindDirection,WindDirectionDegrees,WindSpeedMPH,WindSpeedGustMPH,Humidity,HourlyPrecipIn,Conditions,Clouds,dailyrainin,SoftwareType,DateUTC
2013-07-30 00:33:00,56.0,54.0,30.09,North,0,0.0,0.0,94,0.00,,,-99.99,,2013-07-30 07:33:00,
2013-07-30 00:43:00,56.0,54.0,30.09,North,0,0.0,0.0,94,0.00,,,-99.99,,2013-07-30 07:43:00,
2013-07-30 01:02:00,56.0,54.0,30.09,North,0,0.0,0.0,94,0.00,,,-99.99,,2013-07-30 08:02:00,
2013-07-30 01:12:00,56.0,54.0,30.10,North,0,0.0,0.0,94,0.00,,,-99.99,,2013-07-30 08:12:00,
2013-07-30 01:32:00,56.0,55.0,30.09,North,0,0.0,0.0,95,0.00,,,-99.99,,2013-07-30 08:32:00,
2013-07-30 01:52:00,56.0,55.0,30.09,North,0,0.0,0.0,95,0.00,,,-99.99,,2013-07-30 08:52:00,
2013-07-30 02:02:00,56.0,55.0,30.09,North,0,0.0,0.0,96,0.00,,,-99.99,,2013-07-30 09:02:00,
2013-07-30 02:43:00,56.0,55.0,30.10,North,0,0.0,0.0,96,0.00,,,-99.99,,2013-07-30 09:43:00,
2013-07-30 02:53:00,56.0,55.0,30.10,North,0,0.0,0.0,96,0.00,,,-99.99,,2013-07-30 09:53:00,
2013-07-30 03:11:00,55.0,54.0,30.10,North,0,0.0,0.0,96,0.00,,,-99.99,,2013-07-30 10:11:00,
2013-07-30 03:43:00,55.0,54.0,30.11,North,0,0.0,0.0,97,0.00,,,-99.99,,2013-07-30 10:43:00,
2013-07-30 03:52:00,55.0,54.0,30.11,North,0,0.0,0.0,97,0.00,,,-99.99,,2013-07-30 10:52:00,
2013-07-30 04:02:00,55.0,54.0,30.11,North,0,0.0,0.0,97,0.00,,,-99.99,,2013-07-30 11:02:00,
2013-07-30 04:33:00,55.0,54.0,30.11,North,0,0.0,0.0,97,0.00,,,-99.99,,2013-07-30 11:33:00,
2013-07-30 04:43:00,55.0,54.0,30.11,North,0,0.0,0.0,97,0.00,,,-99.99,,2013-07-30 11:43:00,
2013-07-30 04:53:00,55.0,54.0,30.11,North,0,0.0,0.0,97,0.00,,,-99.99,,2013-07-30 11:53:00,
2013-07-30 05:11:00,55.0,54.0,30.12,North,0,0.0,0.0,98,0.00,,,-99.99,,2013-07-30 12:11:00,
2013-07-30 05:33:00,54.0,53.0,30.12,North,0,0.0,0.0,98,0.00,,,-99.99,,2013-07-30 12:33:00,
2013-07-30 05:42:00,54.0,54.0,30.12,North,0,0.0,0.0,99,0.00,,,-99.99,,2013-07-30 12:42:00,
2013-07-30 05:53:00,54.0,54.0,30.12,North,0,0.0,0.0,99,0.00,,,-99.99,,2013-07-30 12:53:00,
2013-07-30 06:52:00,54.0,54.0,30.14,North,0,0.0,0.0,100,0.00,,,-99.99,,2013-07-30 13:52:00,
2013-07-30 07:32:00,54.0,54.0,30.14,North,0,0.0,0.0,100,0.00,,,-99.99,,2013-07-30 14:32:00,
2013-07-30 07:43:00,54.0,54.0,30.14,North,0,0.0,0.0,100,0.00,,,-99.99,,2013-07-30 14:43:00,
2013-07-30 07:53:00,54.0,54.0,30.14,North,0,0.0,0.0,100,0.00,,,-99.99,,2013-07-30 14:53:00,
2013-07-30 08:33:00,55.0,55.0,30.15,North,0,0.0,0.0,99,0.00,,,-99.99,,2013-07-30 15:33:00,
2013-07-30 08:43:00,55.0,55.0,30.15,North,0,0.0,0.0,99,0.00,,,-99.99,,2013-07-30 15:43:00,
2013-07-30 08:52:00,55.0,55.0,30.15,North,0,0.0,0.0,99,0.00,,,-99.99,,2013-07-30 15:52:00,
2013-07-30 09:43:00,55.0,55.0,30.16,North,0,0.0,0.0,99,0.00,,,-99.99,,2013-07-30 16:43:00,
2013-07-30 09:52:00,55.0,55.0,30.16,North,0,0.0,0.0,100,0.00,,,-99.99,,2013-07-30 16:52:00,
2013-07-30 10:32:00,56.0,55.0,30.17,North,0,0.0,0.0,97,0.00,,,-99.99,,2013-07-30 17:32:00,
2013-07-30 10:43:00,57.0,56.0,30.17,North,0,0.0,0.0,96,0.00,,,-99.99,,2013-07-30 17:43:00,
2013-07-30 10:53:00,57.0,56.0,30.17,North,0,0.0,0.0,96,0.00,,,-99.99,,2013-07-30 17:53:00,
2013-07-30 11:02:00,57.0,56.0,30.17,North,0,0.0,0.0,96,0.00,,,-99.99,,2013-07-30 18:02:00,
2013-07-30 12:02:00,59.0,56.0,30.18,North,0,0.0,0.0,91,0.00,,,-99.99,,2013-07-30 19:02:00,
2013-07-30 12:33:00,62.0,58.0,30.18,North,0,0.0,0.0,86,0.00,,,-99.99,,2013-07-30 19:33:00,
2013-07-30 12:43:00,63.0,58.0,30.18,North,0,0.0,0.0,84,0.00,,,-99.99,,2013-07-30 19:43:00,
2013-07-30 12:52:00,63.0,58.0,30.18,North,0,0.0,0.0,84,0.00,,,-99.99,,2013-07-30 19:52:00,
2013-07-30 13:32:00,66.0,59.0,30.17,South,180,0.0,8.0,78,0.00,,,-99.99,,2013-07-30 20:32:00,
2013-07-30 13:52:00,67.0,59.0,30.17,WNW,282,0.0,3.0,76,0.00,,,-99.99,,2013-07-30 20:52:00,
2013-07-30 14:02:00,68.0,60.0,30.17,North,0,0.0,3.0,76,0.00,,,-99.99,,2013-07-30 21:02:00,
2013-07-30 14:52:00,71.0,60.0,30.16,SSW,208,0.0,3.0,69,0.00,,,-99.99,,2013-07-30 21:52:00,
2013-07-30 15:32:00,73.0,61.0,30.16,SSW,196,0.0,6.0,67,0.00,,,-99.99,,2013-07-30 22:32:00,
2013-07-30 15:42:00,73.0,61.0,30.16,NW,322,0.0,6.0,67,0.00,,,-99.99,,2013-07-30 22:42:00,
2013-07-30 15:52:00,73.0,62.0,30.15,North,0,0.0,4.0,69,0.00,,,-99.99,,2013-07-30 22:52:00,
2013-07-30 16:01:00,73.0,61.0,30.15,North,0,0.0,4.0,67,0.00,,,-99.99,,2013-07-30 23:01:00,
2013-07-30 16:11:00,72.0,61.0,30.15,NNW,334,0.0,5.0,68,0.00,,,-99.99,,2013-07-30 23:11:00,
2013-07-30 16:21:00,72.0,61.0,30.15,SW,221,0.0,5.0,69,0.00,,,-99.99,,2013-07-30 23:21:00,
2013-07-30 16:53:00,72.0,60.0,30.15,SW,226,0.0,5.0,67,0.00,,,-99.99,,2013-07-30 23:53:00,
2013-07-30 17:01:00,72.0,60.0,30.15,SW,226,0.0,5.0,67,0.00,,,-99.99,,2013-07-31 00:01:00,
2013-07-30 17:31:00,71.0,61.0,30.15,SE,128,1.0,6.0,70,0.00,,,-99.99,,2013-07-31 00:31:00,
2013-07-30 17:43:00,71.0,61.0,30.15,ESE,119,0.0,7.0,71,0.00,,,-99.99,,2013-07-31 00:43:00,
2013-07-30 18:32:00,69.0,60.0,30.15,West,266,0.0,7.0,73,0.00,,,-99.99,,2013-07-31 01:32:00,
2013-07-30 18:42:00,69.0,60.0,30.15,NE,40,0.0,7.0,74,0.00,,,-99.99,,2013-07-31 01:42:00,
2013-07-30 18:52:00,68.0,60.0,30.15,West,259,0.0,1.0,76,0.00,,,-99.99,,2013-07-31 01:52:00,
2013-07-30 19:01:00,68.0,60.0,30.15,WNW,296,0.0,6.0,76,0.00,,,-99.99,,2013-07-31 02:01:00,
2013-07-30 19:11:00,67.0,59.0,30.15,North,0,0.0,6.0,76,0.00,,,-99.99,,2013-07-31 02:11:00,
2013-07-30 19:21:00,67.0,60.0,30.15,NE,44,0.0,6.0,77,0.00,,,-99.99,,2013-07-31 02:21:00,
2013-07-30 19:42:00,66.0,60.0,30.15,North,0,0.0,7.0,81,0.00,,,-99.99,,2013-07-31 02:42:00,
2013-07-30 19:52:00,65.0,59.0,30.15,NNE,14,0.0,5.0,82,0.00,,,-99.99,,2013-07-31 02:52:00,
2013-07-30 20:01:00,64.0,59.0,30.15,North,0,0.0,0.0,84,0.00,,,-99.99,,2013-07-31 03:01:00,
2013-07-30 20:11:00,64.0,59.0,30.16,WSW,240,0.0,3.0,84,0.00,,,-99.99,,2013-07-31 03:11:00,
2013-07-30 20:22:00,63.0,58.0,30.16,North,0,0.0,0.0,85,0.00,,,-99.99,,2013-07-31 03:22:00,
2013-07-30 20:52:00,62.0,58.0,30.16,North,0,0.0,0.0,87,0.00,,,-99.99,,2013-07-31 03:52:00,
2013-07-30 21:01:00,62.0,58.0,30.16,North,0,0.0,3.0,88,0.00,,,-99.99,,2013-07-31 04:01:00,
2013-07-30 21:11:00,62.0,59.0,30.16,North,0,0.0,0.0,89,0.00,,,-99.99,,2013-07-31 04:11:00,
2013-07-30 21:22:00,61.0,58.0,30.16,North,0,0.0,0.0,90,0.00,,,-99.99,,2013-07-31 04:22:00,
2013-07-30 21:32:00,61.0,58.0,30.16,North,0,0.0,0.0,90,0.00,,,-99.99,,2013-07-31 04:32:00,
2013-07-30 21:42:00,61.0,58.0,30.16,North,0,0.0,0.0,90,0.00,,,-99.99,,2013-07-31 04:42:00,
2013-07-30 21:52:00,61.0,58.0,30.16,North,0,0.0,0.0,90,0.00,,,-99.99,,2013-07-31 04:52:00,
2013-07-30 22:11:00,60.0,58.0,30.17,North,0,0.0,0.0,92,0.00,,,-99.99,,2013-07-31 05:11:00,
2013-07-30 22:22:00,60.0,58.0,30.17,North,0,0.0,0.0,92,0.00,,,-99.99,,2013-07-31 05:22:00,
2013-07-30 22:32:00,60.0,58.0,30.17,North,0,0.0,0.0,92,0.00,,,-99.99,,2013-07-31 05:32:00,
2013-07-30 22:42:00,59.0,57.0,30.17,North,0,0.0,0.0,93,0.00,,,-99.99,,2013-07-31 05:42:00,
2013-07-30 22:51:00,59.0,57.0,30.17,North,0,0.0,0.0,93,0.00,,,-99.99,,2013-07-31 05:51:00,
2013-07-30 23:01:00,59.0,57.0,30.17,North,0,0.0,0.0,94,0.00,,,-99.99,,2013-07-31 06:01:00,
2013-07-30 23:11:00,59.0,57.0,30.17,West,277,0.0,2.0,94,0.00,,,-99.99,,2013-07-31 06:11:00,
2013-07-30 23:42:00,58.0,57.0,30.16,North,0,0.0,0.0,96,0.00,,,-99.99,,2013-07-31 06:42:00,
2013-07-30 23:52:00,58.0,57.0,30.16,West,277,0.0,2.0,96,0.00,,,-99.99,,2013-07-31 06:52:00,